Вернуться в каталог

HOD-HOD

АктивенНаукаSSO
NORAD 61768·PAYLOAD·🇮🇷 Iran

Запущен Nov 4, 2024 с Vostochny Cosmodrome

Loading…

Ближайшие Пролёты (ближайшие 24 часа)

TLE

СвежийSource: Space-Track

Эпоха: Sep 14, 2026, 14:30 UTC

1 61768U 24199AK  26257.60485583  .00020275  00000-0  32152-3 0  9996
2 61768  97.2801 133.6272 0004021 347.2017  12.9134 15.53408904148206

Отслеживайте HOD-HOD в реальном времени с AllMySat

Download on the App Store